Regional Weather Roundup
Issued by NWS

Home | Current Version | Previous Version | Graphics & Text | Print | Product List | Glossary On
Versions: 1 2 3 4 5 6 7 8 9 10 11 12 13 14 15 16 17 18 19 20 21 22 23 24 25 26 27 28 29 30 31 32 33 34 35 36 37 38 39 40 41 42 43 44 45 46 47 48 49 50
000
ASUS43 KLOT 230904
RWRIL

ILLINOIS REGIONAL WEATHER ROUNDUP
NATIONAL WEATHER SERVICE CHICAGO/ROMEOVILLE IL
400 AM CDT SAT SEP 23 2017

NOTE: "FAIR" INDICATES FEW OR NO CLOUDS BELOW 12,000 FEET WITH NO
SIGNIFICANT WEATHER AND/OR OBSTRUCTIONS TO VISIBILITY.

* THESE STATIONS ARE NOT UNDER NWS QUALITY CONTROL. THEY ALSO MAY NOT
  REPORT WEATHER SUCH AS PRECIPITATION OR FOG.

ILZ001-002-007-009-015-016-024-231000-
NORTHWEST ILLINOIS

CITY           SKY/WX    TMP DP  RH WIND       PRES   REMARKS
MOLINE         CLEAR     69  63  81 CALM      30.00S
STERLING*      CLEAR     65  64  97 CALM      30.02S
SAVANNA*       CLEAR     67  64  89 SE3       30.01S
$$

ILZ003-004-008-010-011-017-018-231000-
NORTH CENTRAL ILLINOIS

CITY           SKY/WX    TMP DP  RH WIND       PRES   REMARKS
ROCKFORD       CLEAR     68  64  87 CALM      30.04R
FREEPORT*      CLEAR     71  64  78 S7        30.04S
ROCHELLE*      CLEAR     66  64  94 SE3       30.04S
DE KALB*       PTCLDY    69  66  88 S3        30.05S
PERU*          PTCLDY    68  64  86 CALM      30.04R
$$

ILZ005-006-012>014-019>023-231000-
NORTHEAST ILLINOIS

CITY           SKY/WX    TMP DP  RH WIND       PRES   REMARKS
CHICAGO-OHARE  CLEAR     74  65  73 W3        30.03S
CHICAGO-MIDWAY CLEAR     77  67  71 CALM      30.03S
AURORA         CLEAR     66  64  93 CALM      30.04S
LANSING*       CLEAR     70  68  95 CALM      30.04R
JOLIET*        CLEAR     69  68  98 CALM      30.03S
WAUKEGAN       CLEAR     73  67  81 SW6       30.03R
DUPAGE AIRPORT CLEAR     68  65  90 CALM      30.03S
KANKAKEE*      CLEAR     67  66  97 CALM      30.05R
WHEELING       CLEAR     72  69  90 CALM      30.04S FOG
MORRIS*        CLEAR     69  66  88 CALM      30.02S
ROMEOVILLE*    CLEAR     69  65  88 S5        30.04S
NORTHERLY ISL    N/A     80  64  58 W5          N/A  HX  82
$$

LMZ740>746-231000-
SOUTHERN LAKE MICHIGAN

STATION/POSITION SKY/WX   TEMP    WIND        PRES    VSBY  WAVE
                          AIR SEA DIR/SP/G                  HT/PER
                          (F)     (DEG/KT/KT) (MB)    (MI)  (FT/S)
SOUTHERN BUOY              73 70  160/  8/ 10 1016.6          0
WILMETTE HARBOR            75 72  170/  4/  4   N/A           1
HARRISON CRIB              83     210/ 12/ 12   N/A
BURNHAM HARBOR             80                   N/A
CALUMET HARBOR             77     210/  3/  4 1016.3F
BURNS HARBOR               77     170/  4/  8 1017.3F
MICHIGAN CITY              76     150/  7/  9   N/A
MICHIGAN CITY 6N           73 71  240/  4/  4   N/A           0
ST. JOSEPH                 74 72  170/  8/  8 1016.9F         1
$$

ILZ025>027-034>036-040-047-049-050-058-095>099-231000-
WEST-CENTRAL ILLINOIS

CITY           SKY/WX    TMP DP  RH WIND       PRES   REMARKS
QUINCY         CLEAR     74  62  66 S7        30.01R
GALESBURG*     CLEAR     68  64  86 E5        30.03S
MACOMB*        CLEAR     62  60  94 SE3       30.04R
JACKSONVILLE*  CLEAR     65  62  88 SE3       30.02S
PITTSFIELD*    CLEAR     68  64  86 CALM      30.03S
$$

ILZ028>032-037-038-041>044-048-051>054-059>061-231000-
CENTRAL ILLINOIS

CITY           SKY/WX    TMP DP  RH WIND       PRES   REMARKS
PONTIAC        CLEAR     69  68  98 SE3       30.04R
DECATUR        CLEAR     67  64  90 CALM      30.04S
PEORIA         CLEAR     72  66  81 CALM      30.03R
LACON*         PTCLDY    67  65  94 SE3       30.02R
LINCOLN*       CLEAR     69  66  90 CALM      30.03S
SPRINGFIELD    CLEAR     69  65  86 CALM      30.03S
TAYLORVILLE    CLEAR     67  65  91 SE3       30.04R
$$

ILZ033-039-045-046-055>057-062-063-231000-
EAST-CENTRAL ILLINOIS

CITY           SKY/WX    TMP DP  RH WIND       PRES   REMARKS
RANTOUL*       CLEAR     71  68  88 CALM      30.05S
MATTOON        CLEAR     71  68  90 S5        30.03S
PARIS*         CLEAR     67  67  98 CALM      30.06R
$$

ILZ079-100>102-231000-
SOUTHWEST ILLINOIS

CITY           SKY/WX    TMP DP  RH WIND       PRES   REMARKS
ALTON          CLEAR     65  65  99 CALM      30.03R
BELLEVILLE     CLEAR     67  64  92 CALM      30.01R
CAHOKIA*       CLEAR     68  63  84 CALM      30.01S
SPARTA*        CLEAR     68  66  92 CALM      30.04R
$$

ILZ064>066-069>071-074>076-080>082-084>086-088>090-092>094-231000-
SOUTH-CENTRAL ILLINOIS

CITY           SKY/WX    TMP DP  RH WIND       PRES   REMARKS
CARBONDALE     FOG       65  65 100 CALM      30.02R VSB 3/4
CAIRO*         CLEAR     65  65 100 CALM      30.01R FOG
EFFINGHAM*     MOCLDY    69  67  94 CALM      30.05S
MARION         CLEAR     68  66  94 CALM      30.03S
MT. VERNON       N/A     63  63 100 CALM      30.03S
CENTRALIA*     PTCLDY    66  65  96 CALM      30.03R
SALEM*         CLEAR     67  64  91 CALM      30.03S
METROPOLIS*    CLEAR     66  65  97 CALM      30.02R
$$

ILZ067-068-072-073-078-083-087-091-231000-
SOUTHEAST ILLINOIS

CITY           SKY/WX    TMP DP  RH WIND       PRES   REMARKS
LAWRENCEVILLE  CLEAR     69  68  96 NE3       30.04S
FLORA*         CLEAR     68  66  95 CALM      30.03S
FAIRFIELD*     PTCLDY    65  63  95 CALM      30.02S
HARRISBURG*    PTCLDY    65  65  98 CALM      30.03R
ROBINSON*      FOG       64  64 100 CALM      30.05S VSB 3/4
CARMI*         PTCLDY    64  64 100 CALM      30.02S FOG
$$

ABBREVIATIONS USED IN REMARKS
   TC - TEMPERATURE IN CELSIUS
  WCI - WIND CHILL INDEX
   HX - HEAT INDEX
  VSB - VISIBILITY
$$





USA.gov is the U.S. government's official web portal to all federal, state and local government web resources and services.